This is the latest recevied weather packets stored in our database for station/object 4S6DRJ-13. If no packets are shown the sender has not sent any weather packets the latest 10 day(s).
| Time | Temp. | Humidity | Pressure | Rain* | Wind** | Luminosity | Snow |
|---|---|---|---|---|---|---|---|
| 1788247591 | 31.67° C | 68% | 1008.7 hPa | 0 mm | 2.24 m/s, 295° | 1123 W/m² | - |
| 1788247530 | 31.67° C | 68% | 1008.7 hPa | 0 mm | 1.79 m/s, 299° | 1119 W/m² | - |
| 1788247469 | 31.67° C | 68% | 1008.9 hPa | 0 mm | 4.02 m/s, 262° | 1102 W/m² | - |
| 1788247408 | 31.67° C | 69% | 1008.9 hPa | 0 mm | 3.13 m/s, 96° | 923 W/m² | - |
| 1788247347 | 31.67° C | 69% | 1008.7 hPa | 0 mm | 2.24 m/s, 16° | 1119 W/m² | - |
| 1788247286 | 31.67° C | 69% | 1008.7 hPa | 0 mm | 1.79 m/s, 243° | 1103 W/m² | - |
| 1788247226 | 31.67° C | 68% | 1008.9 hPa | 0 mm | 3.13 m/s, 346° | 1116 W/m² | - |
| 1788247164 | 31.67° C | 68% | 1008.6 hPa | 0 mm | 3.13 m/s, 263° | 1123 W/m² | - |
| 1788247103 | 31.11° C | 69% | 1008.9 hPa | 0 mm | 2.68 m/s, 33° | 1123 W/m² | - |
| 1788247063 | 31.11° C | 70% | 1008.8 hPa | 0 mm | 1.79 m/s, 238° | 1125 W/m² | - |
| 1788246982 | 31.11° C | 70% | 1008.8 hPa | 0 mm | 1.34 m/s, 136° | 1133 W/m² | - |
| 1788246920 | 30.56° C | 70% | 1008.9 hPa | 0 mm | 1.79 m/s, 255° | 1127 W/m² | - |
| 1788246859 | 30.56° C | 72% | 1008.8 hPa | 0 mm | 1.79 m/s, 249° | 1128 W/m² | - |
| 1788246798 | 30.56° C | 72% | 1008.9 hPa | 0 mm | 2.24 m/s, 265° | 579 W/m² | - |
| 1788246738 | 31.11° C | 73% | 1008.9 hPa | 0 mm | 1.34 m/s, 249° | 1140 W/m² | - |
| 1788246676 | 31.11° C | 73% | 1008.9 hPa | 0 mm | 2.24 m/s, 346° | 504 W/m² | - |
| 1788246615 | 31.11° C | 73% | 1008.8 hPa | 0 mm | 2.24 m/s, 288° | 521 W/m² | - |
| 1788246555 | 31.11° C | 72% | 1009 hPa | 0 mm | 3.13 m/s, 202° | 1107 W/m² | - |
| 1788246494 | 31.11° C | 72% | 1008.8 hPa | 0 mm | 1.79 m/s, 264° | 1101 W/m² | - |
| 1788246432 | 31.11° C | 71% | 1009 hPa | 0 mm | 2.24 m/s, 307° | 1103 W/m² | - |
| 1788246371 | 31.11° C | 71% | 1009 hPa | 0 mm | 2.24 m/s, 276° | 666 W/m² | - |
| 1788246311 | 31.11° C | 71% | 1008.9 hPa | 0 mm | 3.58 m/s, 109° | 1125 W/m² | - |
| 1788246252 | 31.11° C | 72% | 1008.8 hPa | 0 mm | 0.89 m/s, 252° | 1128 W/m² | - |
| 1788246190 | 31.67° C | 71% | 1009.1 hPa | 0 mm | 2.68 m/s, 234° | 1132 W/m² | - |
| 1788246128 | 31.67° C | 70% | 1009 hPa | 0 mm | 2.68 m/s, 275° | 1114 W/m² | - |
* Rain latest hour (hover to see other rain measurements)
** Current wind speed in m/s (hover to see current wind gust speed)